AirNav   Phillips 66 Aviation Fuel
 
 396 users online  

L70 Agua Dulce Airport
Agua Dulce, California, USA

GOING TO AGUA DULCE?


FAA INFORMATION EFFECTIVE 21 JUNE 2018

Location

FAA Identifier: L70
Lat/Long: 34-30-09.2500N / 118-18-52.7200W
34-30.154167N / 118-18.878667W
34.5025694 / -118.3146444
(estimated)
Elevation: 2660 ft. / 811 m (estimated)
Variation: 14E (1985)
From city: 2 miles E of AGUA DULCE, CA
Time zone: UTC -7 (UTC -8 during Standard Time)
Zip code: 91350

Airport Operations

Airport use: Open to the public
Activation date: 10/1958
Control tower: no
ARTCC: LOS ANGELES CENTER
FSS: RIVERSIDE FLIGHT SERVICE STATION
NOTAMs facility: RAL (NOTAM-D service available)
Attendance: 0800-1800
AIRPORT UNATNDD CHRISTMAS DAY; THANKSGIVING DAY AND NEW YEARS DAY.
Pattern altitude: 3660 ft. MSL
Wind indicator: yes
Segmented circle: yes

Airport Communications

CTAF/UNICOM: 122.8
WX ASOS at PMD (14 nm NE): PHONE 661-272-3798
WX ASOS at WJF (15 nm N): PHONE 661-949-2840
WX AWOS-3PT at WHP (15 nm S): 132.1 (818-899-9820)
WX ASOS at BUR (18 nm S): PHONE 818-841-1384
WX ASOS at VNY (20 nm SW): PHONE 818-904-9213

Nearby radio navigation aids

VOR radial/distance  VOR name  Freq  Var
PMDr223/14.6PALMDALE VORTAC114.5015E
LHSr115/16.9LAKE HUGHES VORTAC108.4015E
VNYr013/18.9VAN NUYS VOR/DME113.1015E
FIMr058/29.4FILLMORE VORTAC112.5015E
SMOr358/30.4SANTA MONICA VOR/DME110.8015E
GMNr108/32.5GORMAN VORTAC116.1016E
LAXr355/34.7LOS ANGELES VORTAC113.6015E
POMr299/36.5POMONA VORTAC110.4015E

 
NDB name  Hdg/Dist  Freq  Var  ID
EL MONTE316/28.635915EEMT . -- -

Airport Services

Fuel available: 100LL
SELF SERVICE
Parking: tiedowns
Bottled oxygen: NONE
Bulk oxygen: NONE

Runway Information

Runway 4/22

Dimensions: 4600 x 50 ft. / 1402 x 15 m
Surface: asphalt, in good condition
Gradient: SW
RUNWAY 4  RUNWAY 22
Latitude: 34-29.982167N34-30.445667N
Longitude: 118-19.154833W118-18.410333W
Elevation: 2639.5 ft.2552.5 ft.
Gradient: 1.0%1.9% UP
Traffic pattern: leftright
Displaced threshold: 580 ft.838 ft.
Markings: basic, in good conditionbasic, in good condition
Runway end identifier lights: nono
Obstructions: 15 ft. bldg, 240 ft. from runway, 85 ft. right of centerline, 2:1 slope to clear
RWY 04 +15 FT HANGER 140-160 FT FM EOR 80 FT RIGHT.
4 ft. fence, 200 ft. from runway, 35 ft. right of centerline
+4 FT FENCE 0 FT - 200 FT FROM EOR DIAGONALLY FROM 50 FT LEFT TO 35 FT RIGHT.

Airport Ownership and Management from official FAA records

Ownership: Privately-owned
Owner: LAND SEA AIR LEASING CORPORATION
15853 OLDEN STREET, P.O. BOX 9203
SYLMAR, CA 91392
Phone (661) 268-8835
Manager: JOHN BONNER
33638 AGUA DULCE CANYON ROAD, P. O. BOX 9203
AGUA DULCE, CA 91390
Phone (661) 268-8835
DOUG ABNEY, ASST ARPT OPNS - PHONE 661-268-8835 CELL 661-268-8835.

Airport Operational Statistics

Aircraft based on the field: 33
Single engine airplanes: 27
Multi engine airplanes: 2
Helicopters: 3
Gliders airplanes: 1
    
Aircraft operations: avg 60/month *
50% transient general aviation
50% local general aviation
* for 12-month period ending 31 December 2016

Additional Remarks

RIDGE SOUTH OF AIRPORT PARALLEL TO RY VIOLATES 7:1 TRANSITIONAL SURFACE.
FORMATION ARRIVALS AND DEPARTURES PROHIBITED.
NO AEROBATICS PERMITTED.
AIRPORT CLSD SUNSET TO SUNRISE. ALL NIGHT OPERATIONS PROHIBITED BY LOCAL RESTRICTIONS.
ACTVT MIKE 5 TIMES ON CTAF FREQ FOR ARPT WX.
10-25 FT WIDE DITCH AT 170 FT ALONG SE EDGE OF RY.
TGL NOT PERMITTED.
AVOID FLYING WITHIN 1000 FT OF SCHOOL APRXLY ONE MILE SOUTHWEST. RY 04 DEP AVOID FLYING OVER HOMES 2,000 FT NE OF RY END.

Instrument Procedures

There are no published instrument procedures at L70.

Some nearby airports with instrument procedures:

KPMD - Palmdale USAF Plant 42 Airport (14 nm NE)
KWJF - General Wm J Fox Airfield (15 nm N)
KWHP - Whiteman Airport (15 nm S)
KBUR - Bob Hope Airport (18 nm S)
KVNY - Van Nuys Airport (20 nm SW)
 
Loc | Ops | Rwys | IFR | FBO | Links
Com | Nav | Svcs | Stats | Notes

AirNav Hotels Sweepstakes
 
Area around L70 (Agua Dulce Airport)
 
Road maps at: MapQuest Bing Google
 
Aerial photo
WARNING: Photo may not be current or correct
Aerial photo of L70 (Agua Dulce Airport)
Photo by Mark Robinson & eatsleepfly.com
Photo taken 08-Mar-2014
looking northwest.

Do you have a better or more recent aerial photo of Agua Dulce Airport that you would like to share? If so, please send us your photo.

 
Sectional chart

 
Airport distance calculator
Flying to Agua Dulce Airport? Find the distance to fly.

From to L70

Sunrise and sunset
Times for 24-Jun-2018
 Local
(UTC-7)
 Zulu
(UTC)
Morning civil twilight05:1312:13
Sunrise05:4312:43
Sunset20:0903:09
Evening civil twilight20:3803:38

Current date and time
Zulu (UTC)  24-Jun-2018 10:16:57
Local (UTC-7)  24-Jun-2018 03:16:57
 
METAR
KWJF 
14nm N 
240956Z AUTO 24011KT 10SM CLR 21/08 A2981 RMK AO2 SLP072 T02110083
KPMD 
14nm NE 
240953Z AUTO 21011KT 10SM CLR 21/08 A2983 RMK AO2 SLP068 T02110078
KWHP 
16nm S 
240250Z 16005KT 10SM SKC 20/13 A2987
KBUR 
18nm S 
240953Z 16004KT 10SM OVC014 17/14 A2986 RMK AO2 SLP100 T01670144
KVNY 
19nm SW 
240951Z AUTO 15006KT 10SM OVC013 17/13 A2986 RMK AO2 SLP104 T01670133
KSDB 
25nm NW 
240953Z AUTO 26008KT 10SM CLR 19/07 A2997 RMK AO2 SLP090 T01890067
KCQT 
27nm S 
240947Z AUTO 00000KT 10SM OVC015 18/14 A2986 RMK AO2 SLP109 T01830139
TAF
KWJF 
14nm N 
240557Z 2406/2506 24015KT P6SM SKC FM241300 VRB05KT P6SM SKC FM241800 24015G22KT P6SM SKC FM250400 24012KT P6SM SKC
KPMD 
14nm NE 
240557Z 2406/2506 22010KT P6SM SKC FM241200 VRB05KT P6SM SKC FM241800 24012G20KT P6SM SKC FM250400 24010KT P6SM SKC
KBUR 
18nm S 
240557Z 2406/2506 12006KT P6SM BKN015 FM241200 14006KT P6SM SCT015 BKN025 FM241800 18010KT P6SM SKC FM250400 16005KT P6SM FEW025
KVNY 
19nm SW 
240557Z 2406/2506 14006KT P6SM BKN015 FM241200 15006KT P6SM BKN025 FM241700 17010KT P6SM SKC FM250400 14005KT P6SM FEW025
NOTAMs
Click for the latest NOTAMs
NOTAMs are issued by the DoD/FAA and will open in a separate window not controlled by AirNav.

 

 
 

FBO, Fuel Providers, and Aircraft Ground Support

  
 Business Name 
 
 Contact 
 
 Services / Description 
 
Fuel Prices
 
Comments
  
Agua Dulce Airport 661-268-0797
[web site]
[email]
Airport management, Aviation fuel, Aircraft parking (ramp or tiedown), Rental cars, Pilots lounge / snooze room, Restrooms

More info about Agua Dulce Airport
Avfuel
100LL
SS $5.58 
 Updated 15-Jun-2018
 
   write
SS=Self service
Update Fuel Prices
 

Would you like to see your business listed on this page?

 If your business provides an interesting product or service to pilots, flight crews, aircraft, or users of the Agua Dulce Airport, you should consider listing it here.  To start the listing process, click on the button below
 
Add a business
 

Other Pages about Agua Dulce Airport

www.l70airport.com
 
Update a link
 
Copyright © AirNav, LLC. All rights reserved. Privacy Policy  Contact